Weather History for Algona, IA

Change the Weather History Date:

Tuesday, February 26, 2013

  Actual Average Record
Temperature  
Mean Temperature 22 °F -  
Max Temperature 28 °F 30 °F 51 °F (1998)
Min Temperature 17 °F 17 °F -9 °F (2014)
Degree Days  
Heating Degree Days 42    
Moisture  
Dew Point 24 °F    
Average Humidity 95    
Maximum Humidity 100    
Minimum Humidity 86    
Precipitation  
Precipitation 0.00 in - - ()
Sea Level Pressure  
Sea Level Pressure 29.86 in    
Wind  
Wind Speed 13 mph (North)    
Max Wind Speed 20 mph    
Max Gust Speed 26 mph    
Visibility 3 miles    
Events Fog , Snow    
Averages and records for this station are not official NWS values.
T = Trace of Precipitation, MM = Missing Value Source: NWS Daily Summary

Daily Weather History Graph

Daily Weather History Graph

Search for Another Location

Airport:

Trip Planner

Search our weather history database for the weather conditions in past years. The results will help you decide how hot, cold, wet, or windy it might be!

Date:

Astronomy

Feb. 26, 2013 Rise Set
Actual Time 6:57 AM CST 6:02 PM CST
Civil Twilight 6:28 AM CST 6:31 PM CST
Nautical Twilight 5:56 AM CST 7:04 PM CST
Astronomical Twilight 5:23 AM CST 7:37 PM CST
Moon 7:23 PM CST (2/26) 6:57 AM CST (2/26)
Length of Visible Light 12h 02m
Length of Day
11h 05m
Full, 99% of the Moon is Illuminated
Feb 26
Full
Mar 4
Last Quarter
Mar 11
New
Mar 19
First Quarter
Mar 27
Full

Hourly Weather History & Observations

Time (CST) Temp. Windchill Dew Point Humidity Pressure Visibility Wind Dir Wind Speed Gust Speed Precip Events Conditions
12:15 AM 28.4 °F 19.1 °F 26.6 °F 93% 29.96 in 3.0 mi NNE 10.4 mph - N/A   Overcast
12:35 AM 26.6 °F 16.2 °F 26.6 °F 100% 29.95 in 3.0 mi NNE 11.5 mph - N/A   Overcast
12:55 AM 26.6 °F 16.2 °F 26.6 °F 100% 29.95 in 3.0 mi NNE 11.5 mph - N/A   Overcast
1:15 AM 26.6 °F 16.2 °F 26.6 °F 100% 29.95 in 3.0 mi NNE 11.5 mph - N/A   Overcast
1:35 AM 26.6 °F 16.8 °F 26.6 °F 100% 29.95 in 3.0 mi NNE 10.4 mph - N/A   Overcast
1:55 AM 26.6 °F 16.2 °F 26.6 °F 100% 29.94 in 3.0 mi NNE 11.5 mph - N/A   Overcast
2:15 AM 26.6 °F 17.5 °F 26.6 °F 100% 29.94 in 2.5 mi North 9.2 mph - N/A   Overcast
2:35 AM 24.8 °F 15.3 °F 24.8 °F 100% 29.93 in 2.5 mi North 9.2 mph 15.0 mph N/A   Overcast
2:55 AM 23.0 °F 13.1 °F 23.0 °F 100% 29.92 in 2.5 mi North 9.2 mph - N/A   Overcast
3:15 AM 24.8 °F 13.4 °F 24.8 °F 100% 29.90 in 2.0 mi NNE 12.7 mph - N/A   Overcast
3:35 AM - - - N/A% 29.89 in 1.0 mi North 12.7 mph - N/A   Light Drizzle
3:55 AM 23.0 °F 11.7 °F 23.0 °F 100% 29.88 in 0.5 mi North 11.5 mph - N/A   Light Freezing Rain
4:15 AM 23.0 °F 10.1 °F 23.0 °F 100% 29.88 in 0.2 mi NNE 15.0 mph - N/A   Light Freezing Rain
4:35 AM 23.0 °F 11.1 °F 23.0 °F 100% 29.89 in 0.5 mi NNE 12.7 mph - N/A Fog Light Freezing Fog
4:55 AM 23.0 °F 10.6 °F 23.0 °F 100% 29.89 in 1.5 mi NNE 13.8 mph - N/A   Light Freezing Rain
5:15 AM 21.2 °F 9.5 °F 21.2 °F 100% 29.90 in 2.5 mi NNE 11.5 mph - N/A   Overcast
5:35 AM 21.2 °F 8.9 °F 19.4 °F 93% 29.89 in 3.0 mi NNE 12.7 mph - N/A Snow Light Snow
5:55 AM 19.4 °F 7.9 °F 19.4 °F 100% 29.89 in 3.0 mi NNE 10.4 mph - N/A   Overcast
6:15 AM 19.4 °F 6.0 °F 19.4 °F 100% 29.88 in 3.0 mi North 13.8 mph - N/A   Overcast
6:35 AM 19.4 °F 7.9 °F 17.6 °F 93% 29.88 in 3.0 mi North 10.4 mph 16.1 mph N/A   Overcast
6:55 AM 17.6 °F 4.3 °F 17.6 °F 100% 29.87 in 2.0 mi NNE 12.7 mph - N/A Snow Light Snow
7:15 AM 17.6 °F 4.3 °F 17.6 °F 100% 29.87 in 2.0 mi North 12.7 mph - N/A Snow Light Snow
7:35 AM 17.6 °F 4.3 °F 17.6 °F 100% 29.87 in 2.0 mi NNE 12.7 mph - N/A   Overcast
7:55 AM 17.6 °F 5.0 °F 17.6 °F 100% 29.88 in 2.5 mi NNE 11.5 mph - N/A   Overcast
8:15 AM 17.6 °F 5.0 °F 17.6 °F 100% 29.88 in 2.5 mi NNE 11.5 mph - N/A   Overcast
8:35 AM 17.6 °F 5.7 °F 17.6 °F 100% 29.88 in 2.0 mi North 10.4 mph - N/A   Mostly Cloudy
8:55 AM 19.4 °F 6.6 °F 17.6 °F 93% 29.88 in 2.0 mi NNE 12.7 mph - N/A   Scattered Clouds
9:15 AM 19.4 °F 6.6 °F 19.4 °F 100% 29.88 in 2.0 mi NNE 12.7 mph - N/A   Partly Cloudy
9:35 AM 19.4 °F 6.6 °F 19.4 °F 100% 29.88 in 2.0 mi NNE 12.7 mph - N/A   Clear
9:55 AM 21.2 °F 7.8 °F 21.2 °F 100% 29.87 in 2.0 mi NNE 15.0 mph - N/A   Clear
10:15 AM 23.0 °F 10.6 °F 21.2 °F 93% 29.87 in 2.0 mi NNE 13.8 mph 20.7 mph N/A   Clear
10:35 AM 23.0 °F 10.6 °F 23.0 °F 100% 29.87 in 2.5 mi NNE 13.8 mph - N/A   Clear
10:55 AM 24.8 °F 11.9 °F 23.0 °F 93% 29.86 in 2.5 mi NNE 16.1 mph - N/A   Clear
11:15 AM 26.6 °F 14.7 °F 23.0 °F 86% 29.86 in - NNE 15.0 mph - N/A   Unknown
11:35 AM 26.6 °F 15.2 °F 23.0 °F 86% 29.86 in 3.0 mi NNE 13.8 mph - N/A   Clear
11:55 AM 28.4 °F 17.5 °F 24.8 °F 86% 29.85 in 3.0 mi NNE 13.8 mph 19.6 mph N/A   Clear
12:15 PM 28.4 °F 17.5 °F 24.8 °F 86% 29.84 in 4.0 mi NNE 13.8 mph 21.9 mph N/A   Clear
12:35 PM 28.4 °F 18.5 °F 24.8 °F 86% 29.84 in 3.0 mi North 11.5 mph - N/A   Clear
12:55 PM 28.4 °F 17.0 °F 26.6 °F 93% 29.83 in 3.0 mi North 15.0 mph - N/A   Partly Cloudy
1:15 PM 28.4 °F 17.5 °F 24.8 °F 86% 29.83 in 2.5 mi North 13.8 mph - N/A   Mostly Cloudy
1:35 PM 28.4 °F 16.6 °F 26.6 °F 93% 29.81 in 2.0 mi North 16.1 mph - N/A   Scattered Clouds
1:55 PM 28.4 °F 16.6 °F 26.6 °F 93% 29.81 in 2.0 mi North 16.1 mph 23.0 mph N/A   Scattered Clouds
2:15 PM 28.4 °F 16.6 °F 26.6 °F 93% 29.80 in 2.0 mi North 16.1 mph 21.9 mph N/A   Scattered Clouds
2:35 PM 28.4 °F 16.6 °F 26.6 °F 93% 29.80 in 2.0 mi North 16.1 mph 21.9 mph N/A   Overcast
2:55 PM 28.4 °F 16.6 °F 26.6 °F 93% 29.79 in 2.0 mi North 16.1 mph 21.9 mph N/A   Overcast
3:15 PM 28.4 °F 15.4 °F 26.6 °F 93% 29.79 in 2.0 mi North 19.6 mph - N/A   Mostly Cloudy
3:35 PM 28.4 °F 16.6 °F 26.6 °F 93% 29.80 in 2.5 mi North 16.1 mph 26.5 mph N/A   Mostly Cloudy
3:55 PM 28.4 °F 15.8 °F 26.6 °F 93% 29.80 in 2.5 mi North 18.4 mph - N/A   Mostly Cloudy
4:15 PM 28.4 °F 18.0 °F 26.6 °F 93% 29.80 in 3.0 mi North 12.7 mph 25.3 mph N/A   Overcast
4:35 PM 28.4 °F 16.6 °F 26.6 °F 93% 29.80 in 3.0 mi North 16.1 mph 24.2 mph N/A   Overcast
4:55 PM 28.4 °F 17.0 °F 26.6 °F 93% 29.81 in 3.0 mi North 15.0 mph 20.7 mph N/A   Mostly Cloudy
5:15 PM 28.4 °F 18.0 °F 26.6 °F 93% 29.81 in 3.0 mi North 12.7 mph 20.7 mph N/A   Overcast
5:35 PM 28.4 °F 16.2 °F 26.6 °F 93% 29.81 in 3.0 mi North 17.3 mph 24.2 mph N/A   Overcast
5:55 PM 28.4 °F 16.2 °F 26.6 °F 93% 29.81 in 3.0 mi North 17.3 mph 24.2 mph N/A   Overcast
6:15 PM 28.4 °F 16.2 °F 26.6 °F 93% 29.81 in 3.0 mi North 17.3 mph 25.3 mph N/A   Overcast
6:35 PM 28.4 °F 16.6 °F 26.6 °F 93% 29.81 in 5.0 mi North 16.1 mph 25.3 mph N/A   Overcast
6:55 PM 28.4 °F 16.2 °F 26.6 °F 93% 29.81 in 5.0 mi North 17.3 mph - N/A   Overcast
7:15 PM 28.4 °F 17.0 °F 26.6 °F 93% 29.82 in 5.0 mi North 15.0 mph 21.9 mph N/A   Overcast
7:35 PM 28.4 °F 16.6 °F 26.6 °F 93% 29.82 in 5.0 mi North 16.1 mph 23.0 mph N/A   Overcast
7:55 PM 28.4 °F 17.5 °F 26.6 °F 93% 29.82 in 5.0 mi North 13.8 mph - N/A   Overcast
8:15 PM 28.4 °F 18.0 °F 26.6 °F 93% 29.82 in 6.0 mi North 12.7 mph - N/A   Scattered Clouds
8:35 PM 28.4 °F 17.0 °F 26.6 °F 93% 29.82 in 6.0 mi North 15.0 mph - N/A   Clear
8:55 PM 28.4 °F 19.1 °F 26.6 °F 93% 29.83 in 6.0 mi North 10.4 mph - N/A   Clear
9:15 PM 26.6 °F 16.8 °F 24.8 °F 93% 29.83 in 6.0 mi NNW 10.4 mph - N/A   Clear
9:35 PM 26.6 °F 16.8 °F 24.8 °F 93% 29.83 in 6.0 mi North 10.4 mph - N/A   Clear
9:55 PM 26.6 °F 16.8 °F 24.8 °F 93% 29.83 in 7.0 mi NNW 10.4 mph - N/A   Clear
10:15 PM 26.6 °F 16.8 °F 24.8 °F 93% 29.83 in 7.0 mi NNW 10.4 mph - N/A   Clear
10:55 PM 24.8 °F 14.0 °F 23.0 °F 93% 29.82 in 7.0 mi NNW 11.5 mph - N/A   Clear
11:15 PM 24.8 °F 13.4 °F 23.0 °F 93% 29.82 in 7.0 mi NNW 12.7 mph 18.4 mph N/A   Clear
11:35 PM 26.6 °F 15.2 °F 23.0 °F 86% 29.82 in 7.0 mi NNW 13.8 mph 20.7 mph N/A   Clear
11:55 PM 24.8 °F 13.4 °F 23.0 °F 93% 29.82 in 7.0 mi NNW 12.7 mph 19.6 mph N/A   Clear